Tracking 20383 objects as of 24-Feb-2020
HD Live streaming from Space Station
objects crossing your sky now
Track the group of recently launched Starlink satellites

TITAN 3C TRANSTAGE DEB

Track TITAN 3C TRANSTAGE DEB now!
10-day predictions


NORAD ID: 1653
Int'l Code: 1965-082Q
Perigee: 663.6 km
Apogee: 722.8 km
Inclination: 32.1 °
Period: 98.5 minutes
Semi major axis: 7064 km
RCS: 0.6097 m2 (medium)
Launch date: October 15, 1965
Source: United States (US)
Launch site: AIR FORCE EASTERN TEST RANGE (AFETR)

Note: This is SATELLITE DEBRIS
aabbcc
Your satellite tracking list
Your tracking list is empty




NASA's NSSDC Master Catalog

Two Line Element Set (TLE):
1  1653U 65082Q   20054.66652318 +.00000076 +00000-0 +72559-5 0  9990
2  1653 032.1190 135.6412 0041923 103.1870 257.3457 14.62208075873639
Source of the keplerian elements: AFSPC